Tucson, AZ

8:16 PM MST on September 27, 2016 (GMT -0700)
Tucson International

Weather History for KTUS - July, 2012

Change the Weather History Date:

Monday, July 16, 2012

  Actual Average Record
Temperature  
Mean Temperature 82 °F 87 °F  
Max Temperature 94 °F 100 °F 110 °F (2003)
Min Temperature 70 °F 75 °F 64 °F (1905)
Degree Days  
Heating Degree Days 0 0  
Month to date heating degree days 0 0  
Since 1 June heating degree days 0 0  
Since 1 July heating degree days 0 0  
Cooling Degree Days 17 22  
Month to date cooling degree days 349 364  
Year to date cooling degree days 1718 1460  
Since 1 June cooling degree days 1041 958  
Growing Degree Days 32 (Base 50)    
Moisture  
Dew Point 62 °F    
Average Humidity 57    
Maximum Humidity 84    
Minimum Humidity 30    
Precipitation  
Precipitation 0.67 in 0.08 in 1.90 in (1919)
Month to date precipitation 3.51 0.89  
Year to date precipitation 4.53 4.16  
Snow  
Snow 0.00 in - - ()
Month to date snowfall 0.0  
Snow Depth 0.00 in    
Sea Level Pressure  
Sea Level Pressure 29.86 in    
Wind  
Wind Speed 7 mph (SSE)    
Max Wind Speed 28 mph    
Max Gust Speed 40 mph    
Visibility 10 miles    
Events Thunderstorm    
T = Trace of Precipitation, MM = Missing Value Source: NWS Daily Summary

Daily Weather History Graph

Daily Weather History Graph

Search for Another Location

Airport or City:

Trip Planner

Search our weather history database for the weather conditions in past years. The results will help you decide how hot, cold, wet, or windy it might be!

Date:

Astronomy

Jul. 16, 2012 Rise Set
Actual Time 5:29 AM MST 7:30 PM MST
Civil Twilight 5:01 AM MST 7:58 PM MST
Nautical Twilight 4:27 AM MST 8:31 PM MST
Astronomical Twilight 3:52 AM MST 9:07 PM MST
Moon 3:16 AM MST (7/16) 5:38 PM MST (7/16)
Length of Visible Light 14h 56m
Length of Day
14h 01m
Waning Crescent, 6% of the Moon is Illuminated
Jul 16
Waning Crescent
Jul 18
New
Jul 26
First Quarter
Aug 1
Full
Aug 9
Last Quarter

Hourly Weather History & Observations

Time (MST) Temp. Heat Index Dew Point Humidity Pressure Visibility Wind Dir Wind Speed Gust Speed Precip Events Conditions
12:53 AM 73.9 °F - 63.0 °F 68% 29.84 in 10.0 mi East 8.1 mph - N/A   Clear
1:53 AM 73.0 °F - 63.0 °F 71% 29.83 in 10.0 mi ESE 9.2 mph - N/A   Clear
2:53 AM 72.0 °F - 64.0 °F 76% 29.82 in 10.0 mi SE 10.4 mph - N/A   Clear
3:53 AM 72.0 °F - 64.0 °F 76% 29.81 in 10.0 mi SSE 6.9 mph - N/A   Clear
4:53 AM 70.0 °F - 64.0 °F 81% 29.86 in 10.0 mi SE 9.2 mph - N/A   Clear
5:53 AM 71.1 °F - 66.0 °F 84% 29.88 in 10.0 mi SE 9.2 mph - N/A   Clear
6:53 AM 73.0 °F - 64.9 °F 76% 29.89 in 10.0 mi SE 9.2 mph - N/A   Clear
7:53 AM 77.0 °F - 64.9 °F 66% 29.90 in 10.0 mi SE 9.2 mph - N/A   Clear
8:53 AM 81.0 °F 82.7 °F 64.9 °F 58% 29.90 in 10.0 mi SSE 8.1 mph - N/A   Mostly Cloudy
9:53 AM 82.9 °F 84.4 °F 64.0 °F 53% 29.89 in 10.0 mi South 8.1 mph - N/A   Overcast
10:53 AM 86.0 °F 86.8 °F 63.0 °F 46% 29.88 in 10.0 mi SSE 4.6 mph - N/A   Mostly Cloudy
11:53 AM 89.1 °F 89.3 °F 62.1 °F 40% 29.86 in 10.0 mi Variable 3.5 mph - N/A   Clear
12:06 PM 87.8 °F 87.6 °F 60.8 °F 40% 30.00 in 10.0 mi SW 4.6 mph - N/A Thunderstorm Thunderstorm
12:29 PM 82.4 °F 85.4 °F 68.0 °F 62% 30.00 in 9.0 mi West 9.2 mph - N/A   Mostly Cloudy
12:53 PM 88.0 °F 89.3 °F 64.0 °F 45% 29.85 in 10.0 mi Calm Calm - 0.04 in   Mostly Cloudy
1:53 PM 91.0 °F 91.5 °F 62.1 °F 38% 29.82 in 10.0 mi West 8.1 mph - N/A   Clear
2:53 PM 91.9 °F 91.5 °F 60.1 °F 34% 29.81 in 10.0 mi West 6.9 mph - N/A   Partly Cloudy
3:53 PM 91.9 °F 91.8 °F 61.0 °F 35% 29.78 in 10.0 mi SSW 6.9 mph - N/A   Mostly Cloudy
4:53 PM 93.0 °F 91.7 °F 57.0 °F 30% 29.75 in 10.0 mi West 6.9 mph - N/A   Mostly Cloudy
5:28 PM 93.2 °F 91.9 °F 57.2 °F 30% 29.89 in 10.0 mi NNW 6.9 mph - N/A Thunderstorm Mostly Cloudy
5:46 PM 91.4 °F 90.7 °F 59.0 °F 34% 29.90 in 10.0 mi North 3.5 mph - N/A   Scattered Clouds
5:53 PM 91.9 °F 91.2 °F 59.0 °F 33% 29.75 in 10.0 mi Calm Calm - N/A   Partly Cloudy
6:28 PM 91.4 °F 89.9 °F 57.2 °F 31% 29.90 in 10.0 mi NW 3.5 mph - N/A Thunderstorm Thunderstorm
6:53 PM 88.0 °F 87.9 °F 61.0 °F 40% 29.78 in 10.0 mi SE 17.3 mph 20.7 mph N/A Thunderstorm Thunderstorm
7:36 PM 80.6 °F 81.5 °F 60.8 °F 51% 29.94 in 7.0 mi Variable 4.6 mph 40.3 mph 0.25 in Thunderstorm Thunderstorm
7:53 PM 80.1 °F 81.2 °F 62.1 °F 54% 29.82 in 7.0 mi SW 11.5 mph 20.7 mph 0.47 in Thunderstorm Thunderstorm
7:58 PM 78.8 °F - 62.6 °F 57% 29.96 in 3.0 mi ENE 16.1 mph 32.2 mph 0.02 in Thunderstorm Unknown
8:08 PM 78.8 °F - 59.0 °F 51% 29.95 in 4.0 mi NE 15.0 mph 32.2 mph 0.16 in Thunderstorm Unknown
8:46 PM 78.8 °F - 62.6 °F 57% 29.95 in 10.0 mi ENE 9.2 mph - 0.16 in   Overcast
8:53 PM 80.1 °F 81.1 °F 61.0 °F 52% 29.82 in 10.0 mi ENE 6.9 mph - 0.16 in   Overcast
9:53 PM 77.0 °F - 64.9 °F 66% 29.84 in 10.0 mi South 4.6 mph - N/A   Clear
10:53 PM 75.9 °F - 66.9 °F 74% 29.86 in 10.0 mi East 5.8 mph - N/A   Clear
11:53 PM 78.1 °F - 64.9 °F 64% 29.84 in 10.0 mi South 8.1 mph - N/A   Clear